Regional Weather Roundup
Issued by NWS

Home | Current Version | Previous Version | Graphics & Text | Print | Product List | Glossary Off
Versions: 1 2 3 4 5 6 7 8 9 10 11 12 13 14 15 16 17 18 19 20 21 22 23 24 25 26 27 28 29 30 31 32 33 34 35 36 37 38 39 40 41 42 43 44 45 46 47 48 49 50

000
ASUS43 KTOP 301008
RWRKS

WEATHER ROUNDUP FOR KANSAS
NATIONAL WEATHER SERVICE GOODLAND KS
500 AM CDT SUN APR 30 2017

NOTE:  "FAIR" INDICATES FEW OR NO CLOUDS BELOW 12,000 FEET WITH NO
SIGNIFICANT WEATHER AND/OR OBSTRUCTIONS TO VISIBILITY.

KSZ001>006-013>018-027>032-041>047-301100-
NORTHWEST KANSAS

CITY           SKY/WX    TMP DP  RH WIND       PRES   REMARKS
GOODLAND       CLOUDY    32  30  92 N31G45    29.81F FOG     WCI  17
HAYS           CLOUDY    36  35  96 NE32G41   29.59S WCI  23
HILL CITY      RAIN      34  33  96 N28G37    29.74F FOG     WCI  21
RUSSELL        LGT SNOW  37  36  96 N28G38    29.58F FOG     WCI  25
$$

KSZ061>065-074>080-084>089-301100-
SOUTHWEST KANSAS

CITY           SKY/WX    TMP DP  RH WIND       PRES   REMARKS
DODGE CITY     LGT SNOW  32  32 100 N15       29.66R VSB 1   WCI  22
ELKHART          N/A     31  38 100 NW21        N/A  WCI  18
GARDEN CITY    SNOW      32  31  96 N16       29.72R VSB 1/2 WCI  21
GREAT BEND     RAIN      37  36  96 NE28G39   29.52F FOG     WCI  25
LIBERAL        LGT SNOW  32  32 100 NW30G38   29.70F VSB 1   WCI  18
PRATT          LGT RAIN N/A N/A N/A NE12G17   29.53R
$$

KSZ066>073-081>083-090>101-301100-
SOUTHEAST KANSAS

CITY           SKY/WX    TMP DP  RH WIND       PRES   REMARKS
CHANUTE        LGT RAIN  56  54  93 NE10      29.49F FOG
COFFEYVILLE    CLOUDY    58  57  97 S8        29.53F
HUTCHINSON     CLOUDY    40  38  93 NE20G35   29.52F WCI  30
MEDICINE LODGE   N/A    N/A N/A N/A CALM      29.55R
NEWTON         LGT RAIN  39  39 100 NE20G30   29.51F WCI  30
PARSONS        LGT RAIN  61  59  93 S13       29.53S FOG
WICHITA INTL   LGT RAIN  43  41  93 NE25G36   29.47F FOG
WICHITA JABRA  HVY RAIN  42  41  96 E21G29    29.50F FOG
WICHITA MCCONL RAIN      43  41  93 NE24G37   29.40F
WINFIELD       LGT RAIN  46  45  96 NE10G25   29.46F
$$

KSZ007>012-019>026-033>040-048>060-102>105-301100-
NORTHEAST KANSAS

CITY           SKY/WX    TMP DP  RH WIND       PRES   REMARKS
CONCORDIA      LGT RAIN  38  37  97 NE23G36   29.68F WCI  27
EMPORIA        LGT RAIN  42  42 100 NE25G31   29.51F FOG
LAWRENCE       CLOUDY    43  42  97 NE10      29.62F
MANHATTAN      LGT RAIN  41  32  70 NE23G30   29.61F
MARYSVILLE     CLOUDY    37  37 100 NE18G29   29.69F WCI  27
OLATHE IND     LGT RAIN  43  43 100 NE15      29.61F FOG
OLATHE EXE     LGT RAIN  43  43 100 NE17G23   29.60F FOG
SALINA         LGT RAIN  41  39  93 NE24G38   29.57F FOG
TOPEKA BILLARD CLOUDY    43  43 100 NE18G25   29.62F
TOPEKA FORBES  CLOUDY    43  41  93 NE16G30   29.59F
$$




USA.gov is the U.S. government's official web portal to all federal, state and local government web resources and services.